Regional Weather Roundup
Issued by NWS

Home | Current Version | Previous Version | Text Only | Print | Product List | Glossary Off
Versions: 1 2 3 4 5 6 7 8 9 10 11 12 13 14 15 16 17 18 19 20 21 22 23 24 25 26 27 28 29 30 31 32 33 34 35 36 37 38 39 40 41 42 43 44 45 46 47 48 49 50

000
ASUS43 KOAX 231810
RWRNE

WEATHER ROUNDUP FOR NEBRASKA
NATIONAL WEATHER SERVICE OMAHA NE
100 PM CDT SAT AUG 23 2014

NOTES: SATELLITE DATA IS BEING USED TO AUGMENT CLOUD COVER ABOVE
       12000 FEET.
       "FAIR" INDICATES FEW OR NO CLOUDS BELOW 12,000 FEET WITH NO
       SIGNIFICANT WEATHER AND/OR OBSTRUCTIONS TO VISIBILITY.

  * THESE STATIONS DO NOT REPORT WEATHER SUCH AS RAIN...SNOW OR FOG.

NEZ001>004-019>022-054>056-231900-
NEBRASKA PANHANDLE

CITY           SKY/WX    TMP DP  RH WIND       PRES   REMARKS
SCOTTSBLUFF    SUNNY     79  59  50 VRB7      29.87F
6HR MIN TEMP:  61; 6HR MAX TEMP:  79;

ALLIANCE       CLOUDY    72  61  68 VRB3      29.87F
6HR MIN TEMP:  61; 6HR MAX TEMP:  72;

CHADRON        MOSUNNY   72  61  68 CALM      29.83F
6HR MIN TEMP:  62; 6HR MAX TEMP:  73;

KIMBALL        MOSUNNY   73  54  50 W3        29.90F
SIDNEY         MOSUNNY   75  58  55 CALM      29.91F
6HR MIN TEMP:  62; 6HR MAX TEMP:  76;

$$

NEZ057>060-069>072-079>082-231900-
SOUTHWEST NEBRASKA

CITY           SKY/WX    TMP DP  RH WIND       PRES   REMARKS
NORTH PLATTE   CLOUDY    73  67  81 VRB5      29.86S
6HR MIN TEMP:  66; 6HR MAX TEMP:  71;

IMPERIAL       PTSUNNY   76  66  71 E8        29.86F
6HR MIN TEMP:  65; 6HR MAX TEMP:  75;

LEXINGTON      PTSUNNY   81  71  71 SE10G16   29.83F
MCCOOK         MOSUNNY   79  67  66 W8        29.84F
6HR MIN TEMP:  65; 6HR MAX TEMP:  79;

OGALLALA       PTSUNNY   73  64  73 SW6       29.86F
$$

NEZ005>010-023>029-035>040-094-231900-
NORTH CENTRAL NEBRASKA

CITY           SKY/WX    TMP DP  RH WIND       PRES   REMARKS
VALENTINE      CLOUDY    75  66  73 SE17      29.83F
6HR MIN TEMP:  65; 6HR MAX TEMP:  76;

AINSWORTH      CLOUDY    69  66  89 S12       29.85F
BROKEN BOW     CLOUDY    74  70  87 SE9       29.83F
6HR MIN TEMP:  67; 6HR MAX TEMP:  74;

O`NEILL        CLOUDY    75  70  84 SE15      29.83F
ORD            CLOUDY    75  68  78 SE12      29.82F
6HR MIN TEMP:  66; 6HR MAX TEMP:  75;

THEDFORD       CLOUDY    72  67  84 S12       29.86F
$$

NEZ041-046>049-061>064-073>077-083>087-231900-
SOUTH CENTRAL NEBRASKA

CITY           SKY/WX    TMP DP  RH WIND       PRES   REMARKS
GRAND ISLAND   MOSUNNY   83  73  72 SE12      29.83F
6HR MIN TEMP:  68; 6HR MAX TEMP:  83;

AURORA         SUNNY     83  74  72 S10       29.83F HX  90
HASTINGS       SUNNY     84  67  56 SE17      29.82F
6HR MIN TEMP:  68; 6HR MAX TEMP:  84;

HEBRON         SUNNY     87  65  47 S12       29.83F
HOLDREGE       SUNNY     82  67  59 S13G21    29.83F
KEARNEY *      MOSUNNY   82  72  69 SE14G20   29.83F
YORK           SUNNY     82 N/A N/A S10G17    29.84F
$$

NEZ011>018-030>034-042>045-231900-
NORTHEAST NEBRASKA

CITY           SKY/WX    TMP DP  RH WIND       PRES   REMARKS
NORFOLK        PTSUNNY   78  69  73 SE17      29.84F
6HR MIN TEMP:  68; 6HR MAX TEMP:  78;

ALBION         CLOUDY    77  69  77 SE13      29.84F
BLAIR          PTSUNNY   83  73  70 SE8       29.87S
FREMONT        PTSUNNY   83  72  69 SE12      29.86F
TEKAMAH        CLOUDY    82  72  71 E13       29.85F
6HR MIN TEMP:  69; 6HR MAX TEMP:  83;

WAYNE          CLOUDY    78  72  82 SE15      29.87F
$$

NEZ050>053-065>068-078-088>093-231900-
SOUTHEAST NEBRASKA

CITY           SKY/WX    TMP DP  RH WIND       PRES   REMARKS
LINCOLN        SUNNY     87  71  58 SE12      29.85F HX  93
6HR MIN TEMP:  70; 6HR MAX TEMP:  88;

OMAHA EPPLEY   PTSUNNY   83  72  69 SE7       29.86F
6HR MIN TEMP:  71; 6HR MAX TEMP:  83;

BEATRICE       SUNNY     89  71  56 S10G17    29.85S HX  95
FALLS CITY     SUNNY     90  70  51 S12       29.86F HX  95
6HR MIN TEMP:  72; 6HR MAX TEMP:  90;

NEBRASKA CITY  MOSUNNY   85  72  63 S9G17     29.87S HX  91
PLATTSMOUTH    MOSUNNY   85  72  64 SE14      29.86F HX  91
$$

NEZ044-045-051>053-067-231900-
OMAHA AREA

CITY           SKY/WX    TMP DP  RH WIND       PRES   REMARKS
OMAHA EPPLEY   PTSUNNY   83  72  69 SE7       29.86F
6HR MIN TEMP:  71; 6HR MAX TEMP:  83;

BLAIR          PTSUNNY   83  73  70 SE8       29.87S
FREMONT        PTSUNNY   83  72  69 SE12      29.86F
MILLARD        PTSUNNY   85  74  70 SE15      29.85F HX  93
OFFUTT AFB     PTSUNNY   85  78  80 SE12      29.85F HX  96
PLATTSMOUTH    MOSUNNY   85  72  64 SE14      29.86F HX  91
WAHOO          MOCLDY    84  72  67 SE10      29.85F HX  90
$$



USA.gov is the U.S. government's official web portal to all federal, state and local government web resources and services.